Theta_e
315 315 315 316 315 315 314 314 316 316 317 318 319 319 320 321 320 315 308 314 319 322 323 314 312 310 309 309 312 311 302 300 303 303 304 307 308 315 318 316 318 320 321 326 335
313 314 314 314 314 316 315 314 315 316 316 317 318 318 319 320 313 308 317 321 322 326 314 309 307 308 305 307 309 307 303 302 307 306 304 305 306 311 313 314 315 319 325 331 334
312 312 313 312 313 314 315 314 315 316 315 316 316 318 318 318 307 305 321 323 324 324 315 312 308 306 303 309 307 307 302 306 305 305 305 303 305 310 312 311 315 316 322 329 331
310 311 310 312 312 313 314 314 315 315 315 316 316 316 317 313 292 311 320 319 323 320 314 310 306 302 302 304 308 302 307 308 304 303 302 302 306 305 309 314 318 320 325 328 328
307 307 309 309 311 312 312 312 313 314 315 315 315 315 312 304 303 315 318 318 314 313 309 305 302 301 300 304 304 303 304 308 308 304 302 303 303 304 305 311 318 319 325 326 328
307 306 307 308 308 310 311 312 312 312 313 314 313 314 307 296 312 313 313 312 311 310 308 304 301 303 299 301 300 304 305 306 307 305 302 300 302 303 305 309 309 314 320 325 327
305 305 305 307 308 309 309 310 311 312 313 313 312 311 303 301 312 314 313 311 312 310 306 308 305 299 300 296 301 299 295 300 305 307 304 302 298 299 305 307 305 306 310 320 325
304 304 304 305 306 307 308 308 309 311 312 312 311 308 298 310 313 311 311 310 312 312 311 311 310 302 299 300 297 294 296 292 300 303 301 299 293 302 306 305 304 306 307 308 315
304 304 303 304 305 306 307 308 308 310 311 310 306 303 294 311 305 309 310 305 309 310 311 311 308 301 298 292 289 292 289 292 294 301 300 297 295 301 303 302 303 304 306 307 311
305 305 303 304 304 305 305 306 307 308 308 308 306 296 299 297 304 307 309 308 304 304 306 305 301 296 295 289 283 285 287 290 292 296 295 295 295 300 299 299 299 301 303 306 306
305 305 305 303 304 305 305 303 297 296 301 294 295 295 298 303 307 304 307 304 303 300 294 299 293 289 291 293 291 289 288 288 291 294 291 292 294 296 300 299 299 299 300 301 303
306 305 305 303 303 304 304 296 296 299 291 298 298 298 302 302 295 301 307 298 297 291 295 294 289 294 295 294 291 289 287 286 291 292 291 291 291 295 297 298 300 300 301 301 302
306 305 304 304 302 302 300 298 304 303 290 292 297 296 298 301 296 297 302 299 294 291 292 289 292 296 293 291 289 289 286 286 286 289 292 290 288 291 295 297 298 299 300 301 302
305 305 304 303 298 299 296 302 303 303 282 285 291 294 298 299 293 302 304 298 294 290 292 291 295 293 292 289 290 285 291 289 288 285 280 289 281 291 293 294 295 296 298 299 301
306 305 304 303 299 295 298 303 304 297 271 288 289 301 299 293 294 295 304 299 291 291 292 288 290 291 289 290 293 288 292 289 288 285 285 285 282 287 292 289 292 295 296 298 299
306 305 304 301 301 299 302 303 299 279 271 282 287 289 289 292 292 295 296 300 298 292 293 291 296 295 293 294 294 293 290 289 288 286 279 284 283 284 288 290 292 293 295 295 297
306 305 302 302 295 303 303 295 278 273 283 281 283 287 287 286 287 290 290 289 287 282 283 288 290 294 295 291 294 291 286 279 277 278 277 285 283 285 291 292 292 293 295 297 298
305 304 302 301 303 303 295 283 272 280 279 286 286 285 283 285 286 287 287 285 290 288 285 281 280 289 294 291 288 288 287 281 274 276 279 284 279 285 293 294 294 294 296 295 294
304 301 300 301 303 299 287 277 277 280 284 284 285 281 282 284 285 285 285 285 288 290 282 282 282 292 293 294 293 287 284 290 282 279 279 283 285 289 292 292 293 294 293 292 292
299 296 296 302 301 291 282 279 281 284 286 286 280 283 279 282 282 283 283 287 287 291 292 286 280 289 291 294 294 290 292 282 284 275 274 280 282 283 288 290 292 292 291 291 291
296 288 295 300 297 286 280 280 282 285 286 284 282 280 282 281 283 282 283 286 289 289 292 289 284 284 289 287 286 287 285 286 286 283 277 276 281 290 291 293 292 291 291 291 290
293 283 295 298 284 284 282 281 285 283 285 284 285 284 284 283 282 282 282 285 289 290 285 289 285 279 282 287 292 290 288 288 281 280 283 281 281 291 293 293 293 289 291 290 289
287 286 294 294 280 281 282 282 284 283 282 283 282 285 285 284 279 283 283 285 287 287 286 288 283 277 279 284 288 286 288 289 288 287 281 279 281 291 292 292 292 290 289 288 287
290 282 285 287 287 283 280 279 281 284 283 284 284 286 284 281 284 281 282 284 288 287 289 290 284 280 276 280 283 283 286 288 286 282 283 283 285 287 289 290 290 290 290 288 287
290 283 284 281 282 283 283 281 280 280 283 284 283 284 283 279 280 280 284 282 286 287 287 287 280 282 283 284 284 284 282 283 285 284 282 286 285 289 290 291 291 290 289 286 285
286 284 286 283 284 283 282 279 279 280 281 280 281 281 282 280 281 279 283 283 282 286 284 286 278 280 278 282 283 281 283 284 283 283 285 286 285 292 293 293 290 288 287 286 285
290 290 288 283 283 283 281 280 279 281 282 283 283 282 280 281 285 286 287 286 286 284 282 282 281 278 274 279 280 275 280 283 284 286 285 282 286 290 288 289 288 288 288 287 285
Wind_Speed
16 12 13 16 16 14 13 12 10 8 6 6 7 6 6 6 6 7 10 4 4 6 8 7 10 9 5 11 5 3 6 10 15 9 8 2 5 3 4 2 6 6 6 5 18
14 12 11 9 8 16 14 13 12 9 8 6 6 6 6 3 10 14 10 8 11 6 8 5 7 5 5 9 5 10 10 14 8 7 7 9 6 7 5 9 8 8 6 13 18
13 11 11 8 8 10 14 13 12 11 8 7 6 4 5 6 9 3 4 7 14 12 10 6 4 7 11 13 11 8 15 15 9 8 10 10 10 5 8 11 10 12 12 15 15
9 11 9 12 9 10 11 12 11 11 8 7 5 2 3 7 5 4 4 8 5 9 10 9 7 7 11 18 16 12 13 16 7 7 7 13 12 10 10 8 8 3 17 15 17
5 6 10 12 11 11 9 5 11 12 9 8 4 3 4 7 9 6 4 4 1 6 8 8 10 9 15 12 14 14 18 15 17 9 10 14 14 16 13 10 3 2 10 14 14
11 10 11 8 10 10 9 7 10 10 10 7 4 1 8 11 3 2 4 2 4 2 3 5 3 6 7 15 13 4 13 19 15 13 7 12 17 5 11 11 9 6 9 12 14
8 7 6 11 11 9 8 8 8 8 8 7 2 5 10 11 1 3 2 1 1 4 3 2 2 5 4 6 12 10 10 12 18 17 13 8 20 19 18 10 8 11 10 10 13
7 7 6 7 8 10 7 6 8 9 8 5 3 6 7 5 10 9 4 1 1 2 3 1 0 3 5 3 3 11 13 17 12 16 7 11 17 14 17 15 15 15 11 13 12
9 8 6 7 9 9 8 6 7 7 7 4 7 8 10 3 8 12 11 8 3 1 3 1 4 5 6 5 4 9 14 19 17 10 13 16 12 18 5 6 14 15 15 13 11
10 9 5 5 6 6 4 4 2 3 4 1 7 5 8 10 6 5 11 9 8 6 5 7 6 7 9 11 11 10 16 18 15 13 13 17 16 14 1 6 13 12 11 13 14
7 8 11 8 7 6 5 3 4 5 9 6 5 8 2 9 4 5 6 11 10 8 10 13 10 12 14 15 15 6 9 12 11 5 5 18 18 18 16 11 10 8 10 13 13
8 5 8 6 5 3 4 5 4 4 8 13 13 14 3 9 8 8 8 11 12 15 14 7 16 14 10 12 13 13 11 10 11 3 6 13 15 16 17 16 18 16 16 13 10
10 7 5 8 1 3 7 6 5 6 3 8 20 16 11 7 7 15 12 13 14 16 17 17 2 16 13 12 14 15 16 12 5 4 9 12 18 20 18 18 17 16 17 15 14
8 7 5 10 2 5 7 5 2 6 4 9 11 8 16 8 9 8 13 9 10 17 17 16 20 8 16 16 14 16 13 14 13 6 7 4 8 12 14 13 13 15 15 15 13
10 7 9 11 5 5 5 5 8 3 6 14 9 3 13 16 9 15 11 11 14 11 14 11 10 16 15 14 15 13 12 10 12 11 11 16 9 12 10 11 12 9 4 4 5
9 7 13 6 5 2 4 6 7 5 7 6 2 12 14 19 10 7 11 11 8 14 16 20 4 13 17 11 11 4 7 6 7 9 13 17 14 11 13 12 7 6 4 3 4
8 11 12 4 2 8 5 6 5 8 2 6 4 10 17 10 16 11 11 15 10 11 14 15 15 6 5 12 12 13 13 6 6 8 10 2 14 16 4 3 1 3 2 5 6
10 14 7 3 6 9 3 2 5 6 5 1 5 9 8 12 13 16 11 15 20 14 7 13 11 19 13 13 7 17 17 6 8 9 9 6 10 5 2 5 3 3 5 6 6
17 6 5 5 6 4 3 9 4 5 5 8 9 7 6 8 8 15 12 13 16 18 9 7 20 9 14 16 15 14 20 15 5 3 3 7 9 4 6 5 5 4 5 5 6
7 6 4 7 9 3 3 7 3 2 2 12 6 6 10 12 9 14 12 5 15 16 14 6 6 11 16 15 18 16 12 13 8 7 9 10 13 9 9 11 8 7 5 5 6
7 5 3 7 3 2 5 1 3 1 1 3 4 4 5 8 10 13 8 5 9 12 15 8 3 5 12 16 17 14 11 10 10 10 8 11 11 6 9 10 10 6 5 7 7
5 4 1 3 3 2 2 2 1 3 2 2 3 4 6 12 5 7 9 3 3 4 10 15 3 9 10 8 16 19 20 17 7 10 10 8 5 1 5 3 7 8 8 8 7
5 4 4 2 3 3 2 1 3 4 2 2 4 2 5 7 5 5 5 2 4 7 5 9 5 6 4 6 4 10 14 18 17 14 11 11 7 5 7 7 8 10 9 8 8
5 5 2 0 2 1 2 2 2 6 4 4 4 2 8 4 4 6 6 4 1 1 5 3 5 7 10 4 1 6 12 11 10 9 14 14 15 9 10 10 8 8 9 9 8
3 2 2 5 3 3 0 1 2 3 3 2 2 3 3 4 5 3 7 3 3 4 2 2 3 5 9 5 6 5 7 9 9 12 8 11 13 6 13 12 10 8 8 8 7
3 4 3 2 6 6 3 3 2 3 5 3 5 5 5 4 4 7 6 6 3 4 2 4 3 1 1 5 6 8 8 8 9 5 9 9 8 7 5 8 10 11 10 9 8
1 1 3 2 3 2 2 4 2 2 5 5 10 9 9 8 7 8 6 5 4 5 4 2 3 4 3 2 4 6 13 13 9 7 4 3 3 3 1 6 10 10 9 9 9
Wind_Direction
277 269 267 264 262 263 274 274 274 276 302 303 298 306 295 272 294 250 252 268 190 190 298 309 285 269 282 259 231 231 239 238 231 241 245 100 273 110 355 214 208 163 14 96 129
282 276 269 279 280 276 263 270 270 272 282 298 299 308 327 290 268 261 248 266 257 254 257 259 254 266 259 251 226 223 233 234 245 280 293 327 309 314 233 201 191 167 114 130 142
292 286 277 282 283 299 258 256 260 267 266 282 293 303 311 275 274 247 57 283 240 220 249 237 237 246 223 240 222 232 240 232 244 270 309 308 299 250 257 227 207 198 161 158 162
310 305 315 308 299 298 289 258 264 248 250 274 286 285 290 236 248 94 41 19 56 172 209 212 207 224 230 220 232 258 227 246 244 268 310 288 294 270 252 251 12 302 155 169 179
336 342 297 304 302 298 295 280 280 271 242 244 300 248 206 221 246 144 317 315 120 172 195 212 206 222 243 231 237 233 261 232 244 257 271 288 273 275 275 266 142 23 161 183 188
318 270 283 249 285 290 292 288 272 272 262 244 241 265 234 239 74 300 295 261 268 260 172 190 230 235 288 257 237 229 246 260 241 242 257 269 271 255 258 255 251 208 204 199 199
259 262 278 296 274 263 286 298 306 286 256 242 237 227 240 228 143 84 54 30 317 266 210 185 179 213 229 254 249 266 252 247 249 242 247 287 263 243 253 243 266 244 232 219 215
274 284 292 272 296 278 259 282 299 311 266 242 225 216 246 239 269 239 237 2 185 220 279 154 195 222 244 345 243 230 240 250 241 221 222 216 260 244 240 242 244 253 249 228 222
278 278 282 263 292 284 256 273 303 296 279 222 226 223 245 105 215 234 238 241 106 201 220 283 204 227 167 219 214 232 241 230 249 241 209 213 250 244 237 231 243 252 250 243 239
272 288 258 266 286 287 307 273 280 241 205 51 292 207 209 233 184 224 219 228 229 238 207 201 211 214 214 199 218 223 235 249 244 203 217 233 239 246 241 249 249 252 253 251 243
262 276 257 245 284 282 262 210 190 208 209 189 201 225 60 168 181 202 172 192 211 221 220 196 213 214 217 219 239 302 256 254 225 155 233 241 243 245 243 218 246 245 234 246 243
287 271 245 195 268 271 255 234 273 353 215 219 247 242 93 177 199 193 177 183 195 212 212 218 228 224 237 230 233 242 238 227 277 257 240 261 249 255 256 251 248 245 254 239 242
273 280 223 172 248 226 238 236 353 337 297 230 216 223 197 206 206 187 193 206 199 210 210 220 294 209 227 220 220 226 231 232 243 315 265 277 263 250 250 241 239 238 250 256 252
260 251 202 132 201 225 227 236 189 59 248 195 203 232 211 223 236 185 206 191 216 224 215 233 231 195 215 224 222 234 220 243 259 257 246 261 282 239 225 219 229 236 237 244 250
256 228 185 187 105 200 98 162 152 110 238 142 164 200 177 191 144 191 194 207 224 205 206 220 226 208 220 224 224 246 253 212 231 243 272 246 258 248 234 222 236 209 217 260 341
236 203 171 169 204 212 188 154 169 200 231 172 182 184 174 199 197 125 188 224 252 243 230 229 225 208 223 222 209 224 196 210 235 242 250 241 226 242 227 223 194 141 111 65 30
218 175 175 148 182 156 154 125 180 228 104 167 193 182 184 179 199 190 190 195 201 194 218 230 214 206 208 179 192 193 179 179 203 204 246 196 226 236 188 125 316 296 95 55 45
173 161 160 177 142 136 74 140 263 185 198 192 155 154 189 150 208 190 195 216 217 219 213 209 209 213 196 212 185 200 198 205 216 217 245 147 237 224 298 73 106 110 96 68 54
142 153 157 169 131 101 162 224 259 175 168 167 139 170 172 171 171 198 202 214 219 210 224 214 233 180 193 207 186 193 223 233 314 181 291 203 251 190 171 172 174 148 103 68 61
137 156 121 122 134 85 218 238 242 212 256 167 172 201 179 165 171 188 191 213 226 213 225 314 260 199 198 208 222 220 195 212 214 235 234 240 234 260 192 192 182 163 123 109 91
126 120 74 135 104 185 263 131 190 260 353 216 148 132 173 165 193 189 182 198 237 223 204 186 262 195 205 204 210 215 215 239 227 237 248 255 246 2 180 187 186 140 143 121 104
130 122 70 176 208 250 247 3 101 134 345 127 83 95 141 157 140 202 183 354 347 237 217 218 246 254 245 345 317 246 213 206 215 202 235 287 265 60 76 119 124 152 139 114 104
88 102 26 274 228 206 161 199 58 189 65 104 133 129 158 149 129 174 115 60 257 221 220 178 218 243 216 222 250 236 231 228 230 266 229 225 225 137 130 136 142 159 141 137 126
124 129 118 254 299 258 208 37 80 32 70 45 53 86 119 113 48 159 138 174 2 94 21 293 221 242 243 321 258 228 207 231 239 215 235 226 243 185 178 160 157 149 147 142 136
29 65 16 166 210 167 35 53 105 102 69 75 112 111 76 110 98 141 128 145 179 201 142 169 221 268 267 283 273 225 229 292 240 257 246 253 279 211 192 173 163 156 152 147 149
105 142 113 63 142 165 20 49 32 92 354 70 96 56 58 81 16 172 167 176 214 192 224 164 185 140 3 303 252 257 236 226 245 250 265 237 265 245 151 165 151 166 172 173 172
135 191 137 157 152 160 84 119 136 134 44 40 116 99 77 67 73 59 64 75 151 183 189 213 168 170 245 188 290 275 238 222 222 202 161 255 108 24 222 194 184 175 182 183 176